Stündliche Wetter Barrancas

Heute, 29 Oktober, Donnerstag

Zeit Temperatur Niederschläge Wind Luftdruck Luftfeuchtigkeit
00:00 +24°C° 0 mm 0 m/S 754 mmHg 98%
01:00 +24°C° 0 mm 0 m/S 754 mmHg 98%
02:00 +24°C° 0 mm 0 m/S 753 mmHg 99%
03:00 +23°C° 0 mm 0 m/S 753 mmHg 99%
04:00 +23°C° 0 mm 0 m/S 753 mmHg 99%
05:00 +23°C° 0 mm 0 m/S 754 mmHg 99%
06:00 +27°C° 0.1 mm 1 m/S 754 mmHg 94%
07:00 +28°C° 0.1 mm 1 m/S 755 mmHg 89%
08:00 +29°C° 0.1 mm 1 m/S 756 mmHg 84%
09:00 +30°C° 0.5 mm 1 m/S 756 mmHg 78%
10:00 +32°C° 0.5 mm 2 m/S 756 mmHg 71%
11:00 +34°C° 0.5 mm 2 m/S 756 mmHg 65%
12:00 +35°C° 0.1 mm 2 m/S 755 mmHg 60%
13:00 +36°C° 0.1 mm 2 m/S 754 mmHg 55%
14:00 +36°C° 0.1 mm 2 m/S 753 mmHg 50%
15:00 +36°C° 0 mm 2 m/S 753 mmHg 55%
16:00 +35°C° 0 mm 2 m/S 753 mmHg 59%
17:00 +34°C° 0 mm 2 m/S 753 mmHg 64%
18:00 +31°C° 0 mm 2 m/S 754 mmHg 69%
19:00 +30°C° 0 mm 2 m/S 754 mmHg 75%
20:00 +28°C° 0 mm 2 m/S 755 mmHg 80%
21:00 +28°C° 0 mm 2 m/S 755 mmHg 83%
22:00 +27°C° 0 mm 1 m/S 756 mmHg 86%
23:00 +27°C° 0 mm 1 m/S 756 mmHg 89%

Morgen, 30 Oktober, Freitag

Zeit Temperatur Niederschläge Wind Luftdruck Luftfeuchtigkeit
00:00 +26°C° 0 mm 1 m/S 755 mmHg 91%
01:00 +26°C° 0 mm 1 m/S 755 mmHg 93%
02:00 +26°C° 0 mm 1 m/S 754 mmHg 94%
03:00 +26°C° 0 mm 1 m/S 755 mmHg 95%
04:00 +25°C° 0 mm 1 m/S 755 mmHg 96%
05:00 +25°C° 0 mm 1 m/S 755 mmHg 96%
06:00 +27°C° 0 mm 1 m/S 756 mmHg 91%
07:00 +28°C° 0 mm 1 m/S 756 mmHg 85%
08:00 +30°C° 0 mm 2 m/S 757 mmHg 79%
09:00 +31°C° 0.2 mm 2 m/S 757 mmHg 74%
10:00 +32°C° 0.2 mm 2 m/S 757 mmHg 68%
11:00 +35°C° 0.2 mm 2 m/S 757 mmHg 62%
12:00 +34°C° 0.5 mm 3 m/S 756 mmHg 64%
13:00 +34°C° 0.5 mm 3 m/S 755 mmHg 65%
14:00 +34°C° 0.5 mm 3 m/S 754 mmHg 67%
15:00 +33°C° 0.7 mm 3 m/S 754 mmHg 71%
16:00 +31°C° 0.7 mm 2 m/S 754 mmHg 75%
17:00 +30°C° 0.7 mm 2 m/S 754 mmHg 79%
18:00 +29°C° 0 mm 2 m/S 755 mmHg 83%
19:00 +28°C° 0 mm 2 m/S 755 mmHg 87%
20:00 +27°C° 0 mm 1 m/S 756 mmHg 92%
21:00 +27°C° 0 mm 1 m/S 756 mmHg 92%
22:00 +27°C° 0 mm 1 m/S 756 mmHg 93%
23:00 +26°C° 0 mm 1 m/S 756 mmHg 94%

übermorgen, 31 Oktober, Samstag

Zeit Temperatur Niederschläge Wind Luftdruck Luftfeuchtigkeit
00:00 +26°C° 0 mm 1 m/S 755 mmHg 95%
01:00 +26°C° 0 mm 1 m/S 755 mmHg 96%
02:00 +26°C° 0 mm 1 m/S 755 mmHg 97%
03:00 +26°C° 0 mm 1 m/S 755 mmHg 97%
04:00 +25°C° 0 mm 1 m/S 755 mmHg 98%
05:00 +23°C° 0 mm 0 m/S 755 mmHg 98%
06:00 +27°C° 0 mm 1 m/S 756 mmHg 92%
07:00 +28°C° 0 mm 1 m/S 756 mmHg 86%
08:00 +29°C° 0 mm 2 m/S 757 mmHg 81%
09:00 +31°C° 0.1 mm 2 m/S 757 mmHg 72%
10:00 +34°C° 0.1 mm 3 m/S 756 mmHg 64%
11:00 +36°C° 0.1 mm 3 m/S 756 mmHg 55%
12:00 +36°C° 0.1 mm 3 m/S 755 mmHg 55%
13:00 +36°C° 0.1 mm 3 m/S 754 mmHg 54%
14:00 +36°C° 0.1 mm 4 m/S 753 mmHg 54%
15:00 +35°C° 0.2 mm 3 m/S 753 mmHg 60%
16:00 +34°C° 0.2 mm 3 m/S 753 mmHg 66%
17:00 +31°C° 0.2 mm 3 m/S 753 mmHg 73%
18:00 +30°C° 0.1 mm 3 m/S 754 mmHg 78%
19:00 +29°C° 0.1 mm 2 m/S 755 mmHg 83%
20:00 +28°C° 0.1 mm 2 m/S 755 mmHg 89%
21:00 +27°C° 0 mm 2 m/S 755 mmHg 91%
22:00 +27°C° 0 mm 1 m/S 756 mmHg 93%
23:00 +27°C° 0 mm 1 m/S 756 mmHg 95%

1 November, Sonntag

Zeit Temperatur Niederschläge Wind Luftdruck Luftfeuchtigkeit
00:00 +26°C° 0 mm 1 m/S 755 mmHg 95%
01:00 +26°C° 0 mm 1 m/S 755 mmHg 96%
02:00 +26°C° 0 mm 1 m/S 755 mmHg 97%
03:00 +26°C° 0 mm 1 m/S 755 mmHg 97%
04:00 +26°C° 0 mm 1 m/S 755 mmHg 97%
05:00 +26°C° 0 mm 1 m/S 755 mmHg 98%
06:00 +27°C° 0 mm 1 m/S 756 mmHg 93%
07:00 +28°C° 0 mm 1 m/S 756 mmHg 88%
08:00 +29°C° 0 mm 2 m/S 757 mmHg 83%
09:00 +31°C° 0.1 mm 2 m/S 757 mmHg 75%
10:00 +32°C° 0.1 mm 2 m/S 756 mmHg 66%
11:00 +35°C° 0.1 mm 2 m/S 756 mmHg 57%
12:00 +36°C° 0.1 mm 2 m/S 755 mmHg 55%
13:00 +36°C° 0.1 mm 2 m/S 754 mmHg 53%
14:00 +37°C° 0.1 mm 2 m/S 753 mmHg 50%
15:00 +35°C° 0.4 mm 2 m/S 753 mmHg 59%
16:00 +32°C° 0.4 mm 2 m/S 754 mmHg 68%
17:00 +30°C° 0.4 mm 2 m/S 754 mmHg 77%
18:00 +29°C° 0.3 mm 2 m/S 754 mmHg 82%
19:00 +28°C° 0.3 mm 1 m/S 755 mmHg 87%
20:00 +27°C° 0.3 mm 1 m/S 756 mmHg 92%
21:00 +27°C° 0.1 mm 1 m/S 756 mmHg 93%
22:00 +26°C° 0.1 mm 1 m/S 756 mmHg 95%
23:00 +26°C° 0.1 mm 1 m/S 756 mmHg 96%

2 November, Montag

Zeit Temperatur Niederschläge Wind Luftdruck Luftfeuchtigkeit
00:00 +26°C° 0.2 mm 1 m/S 756 mmHg 97%
01:00 +26°C° 0.2 mm 1 m/S 755 mmHg 98%
02:00 +25°C° 0.2 mm 1 m/S 755 mmHg 98%
03:00 +25°C° 1.5 mm 1 m/S 755 mmHg 98%
04:00 +25°C° 1.5 mm 1 m/S 755 mmHg 99%
05:00 +23°C° 1.5 mm 0 m/S 755 mmHg 99%
06:00 +24°C° 1.8 mm 0 m/S 756 mmHg 96%
07:00 +25°C° 1.8 mm 0 m/S 756 mmHg 94%
08:00 +26°C° 1.8 mm 0 m/S 757 mmHg 92%
09:00 +28°C° 1.3 mm 1 m/S 757 mmHg 91%
10:00 +28°C° 1.3 mm 1 m/S 757 mmHg 91%
11:00 +28°C° 1.3 mm 1 m/S 757 mmHg 90%
12:00 +28°C° 1.3 mm 1 m/S 757 mmHg 91%
13:00 +28°C° 1.3 mm 1 m/S 756 mmHg 93%
14:00 +25°C° 1.3 mm 0 m/S 755 mmHg 94%
15:00 +25°C° 1.1 mm 0 m/S 755 mmHg 95%
16:00 +24°C° 1.1 mm 0 m/S 755 mmHg 96%
17:00 +24°C° 1.1 mm 0 m/S 755 mmHg 97%
18:00 +23°C° 0.3 mm 0 m/S 755 mmHg 97%
19:00 +23°C° 0.3 mm 0 m/S 756 mmHg 98%
20:00 +23°C° 0.3 mm 0 m/S 756 mmHg 98%
21:00 +23°C° 0 mm 0 m/S 756 mmHg 98%
22:00 +23°C° 0 mm 0 m/S 756 mmHg 98%
23:00 +22°C° 0 mm 0 m/S 756 mmHg 98%

3 November, Dienstag

Zeit Temperatur Niederschläge Wind Luftdruck Luftfeuchtigkeit
00:00 +22°C° 0 mm 0 m/S 756 mmHg 98%
01:00 +22°C° 0 mm 0 m/S 755 mmHg 98%
02:00 +22°C° 0 mm 0 m/S 755 mmHg 98%
03:00 +22°C° 0 mm 0 m/S 755 mmHg 98%
04:00 +22°C° 0 mm 0 m/S 755 mmHg 98%
05:00 +22°C° 0 mm 0 m/S 755 mmHg 98%
06:00 +22°C° 0 mm 0 m/S 756 mmHg 97%
07:00 +25°C° 0 mm 1 m/S 756 mmHg 96%
08:00 +25°C° 0 mm 1 m/S 757 mmHg 95%
09:00 +27°C° 0.1 mm 1 m/S 757 mmHg 86%
10:00 +29°C° 0.1 mm 1 m/S 757 mmHg 77%
11:00 +31°C° 0.1 mm 2 m/S 757 mmHg 68%
12:00 +32°C° 0.5 mm 2 m/S 756 mmHg 66%
13:00 +32°C° 0.5 mm 2 m/S 755 mmHg 64%
14:00 +33°C° 0.5 mm 1 m/S 754 mmHg 62%
15:00 +31°C° 1.2 mm 2 m/S 754 mmHg 72%
16:00 +30°C° 1.2 mm 2 m/S 754 mmHg 81%
17:00 +28°C° 1.2 mm 2 m/S 754 mmHg 91%
18:00 +27°C° 0.2 mm 1 m/S 754 mmHg 93%
19:00 +27°C° 0.2 mm 1 m/S 755 mmHg 95%
20:00 +26°C° 0.2 mm 1 m/S 756 mmHg 97%
21:00 +26°C° 0 mm 1 m/S 756 mmHg 98%
22:00 +25°C° 0 mm 1 m/S 756 mmHg 98%
23:00 +25°C° 0 mm 1 m/S 756 mmHg 98%
Mehr zeigen